Tracking 19969 objects as of 12-Nov-2019
Live streaming from Space Station
objects crossing your sky now
Track the group of recently launched Starlink satellites

SSC

Track SSC now!
10-day predictions
SSC is classified as:


NORAD ID: 13874
Int'l Code: 1983-008H
Perigee: 378.5 km
Apogee: 1,736.9 km
Inclination: 63.3 °
Period: 106.2 minutes
Semi major axis: 7428 km
RCS: Unknown
Launch date: February 9, 1983
Source: United States (US)
Launch site: AIR FORCE WESTERN TEST RANGE (AFWTR)
aabbcc
Your satellite tracking list
Your tracking list is empty




NASA's NSSDC Master Catalog

Two Line Element Set (TLE):
1 13874U 83008H   19315.74903384 +.00000581 +00000-0 +54330-4 0  9992
2 13874 063.2932 046.6317 0914288 090.4074 280.1634 13.55926101022565
Source of the keplerian elements: McCants